Weather History for Lewisburg, WV

Change the Weather History Date:

Wednesday, July 31, 2013

  Actual Average Record
Temperature  
Mean Temperature 62 °F 70 °F  
Max Temperature 64 °F 82 °F 116 °F (2005)
Min Temperature 59 °F 59 °F 48 °F (1997)
Degree Days  
Heating Degree Days 4    
Month to date heating degree days  
Since 1 June heating degree days  
Since 1 July heating degree days  
Cooling Degree Days 0    
Month to date cooling degree days  
Year to date cooling degree days  
Since 1 June cooling degree days  
Growing Degree Days 12 (Base 50)    
Moisture  
Dew Point 57 °F    
Average Humidity 88    
Maximum Humidity 94    
Minimum Humidity 68    
Precipitation  
Precipitation 0.45 in 0.14 in 0.45 in (2013)
Month to date precipitation 4.02  
Year to date precipitation 24.93  
Snow  
Snow 0.00 in - - ()
Month to date snowfall  
Since 1 June snowfall  
Since 1 July snowfall  
Snow Depth -    
Sea Level Pressure  
Sea Level Pressure 30.19 in    
Wind  
Wind Speed 1 mph (SE)    
Max Wind Speed 5 mph    
Max Gust Speed -    
Visibility 6 miles    
Events Rain    
T = Trace of Precipitation, MM = Missing Value Source: NWS Daily Summary

Daily Weather History Graph

Daily Weather History Graph

Search for Another Location

Airport:

Trip Planner

Search our weather history database for the weather conditions in past years. The results will help you decide how hot, cold, wet, or windy it might be!

Date:

Astronomy

Jul. 31, 2013 Rise Set
Actual Time 6:24 AM EDT 8:31 PM EDT
Civil Twilight 5:55 AM EDT 9:00 PM EDT
Nautical Twilight 5:19 AM EDT 9:35 PM EDT
Astronomical Twilight 4:40 AM EDT 10:14 PM EDT
Moon 1:18 AM EDT 3:45 PM EDT
Length of Visible Light 15h 05m
Length of Day
14h 06m
Waning Crescent, 32% of the Moon is Illuminated
Jul 31
Waning Crescent
Aug 6
New
Aug 14
First Quarter
Aug 20
Full
Aug 28
Last Quarter

Hourly Weather History & Observations

Time (EDT) Temp. Dew Point Humidity Pressure Visibility Wind Dir Wind Speed Gust Speed Precip Events Conditions
12:15 AM 60.8 °F 55.4 °F 82% 30.25 in 10.0 mi Calm Calm - N/A   Clear
12:35 AM 59.0 °F 55.4 °F 88% 30.25 in 10.0 mi Calm Calm - N/A   Scattered Clouds
12:55 AM 59.0 °F 55.4 °F 88% 30.25 in 10.0 mi Calm Calm - N/A   Mostly Cloudy
1:15 AM 59.0 °F 55.4 °F 88% 30.24 in 10.0 mi Calm Calm - N/A   Overcast
1:35 AM 60.8 °F 55.4 °F 82% 30.24 in 10.0 mi NNE 3.5 mph - N/A   Overcast
1:55 AM 60.8 °F 55.4 °F 82% 30.24 in 10.0 mi NNE 4.6 mph - N/A   Overcast
2:15 AM 60.8 °F 55.4 °F 82% 30.24 in 10.0 mi Calm Calm - N/A   Overcast
2:55 AM 60.8 °F 55.4 °F 82% 30.24 in 10.0 mi Calm Calm - N/A   Overcast
3:15 AM 59.0 °F 55.4 °F 88% 30.24 in 10.0 mi Calm Calm - N/A   Overcast
3:35 AM 60.8 °F 55.4 °F 82% 30.24 in 10.0 mi Calm Calm - N/A   Overcast
3:55 AM 59.0 °F 55.4 °F 88% 30.24 in 10.0 mi Calm Calm - N/A   Overcast
4:15 AM 60.8 °F 55.4 °F 82% 30.24 in 10.0 mi Calm Calm - N/A Rain Light Rain
4:35 AM 60.8 °F 57.2 °F 88% 30.24 in 7.0 mi Calm Calm - N/A Rain Light Rain
4:55 AM 60.8 °F 57.2 °F 88% 30.24 in 7.0 mi Calm Calm - N/A Rain Light Rain
5:15 AM 59.0 °F 57.2 °F 94% 30.24 in 3.0 mi Calm Calm - N/A Rain Rain
5:35 AM 59.0 °F 57.2 °F 94% 30.24 in 4.0 mi Calm Calm - 0.01 in Rain Rain
5:55 AM 59.0 °F 55.4 °F 88% 30.24 in 3.0 mi Calm Calm - 0.01 in Rain Light Rain
6:15 AM 59.0 °F 55.4 °F 88% 30.24 in 3.0 mi Calm Calm - N/A   Overcast
6:35 AM 59.0 °F 55.4 °F 88% 30.25 in 3.0 mi Calm Calm - 0.01 in Rain Light Rain
6:55 AM 59.0 °F 55.4 °F 88% 30.25 in 5.0 mi Calm Calm - 0.01 in   Light Drizzle
7:15 AM 59.0 °F 55.4 °F 88% 30.24 in 2.5 mi Calm Calm - N/A   Overcast
7:35 AM 59.0 °F 55.4 °F 88% 30.24 in 3.0 mi Calm Calm - N/A   Light Drizzle
7:55 AM 59.0 °F 57.2 °F 94% 30.23 in 7.0 mi Calm Calm - N/A   Mostly Cloudy
8:15 AM 60.8 °F 57.2 °F 88% 30.24 in 10.0 mi Calm Calm - N/A   Overcast
8:35 AM 60.8 °F 57.2 °F 88% 30.24 in 10.0 mi SW 3.5 mph - N/A   Scattered Clouds
8:55 AM 60.8 °F 57.2 °F 88% 30.24 in 7.0 mi Calm Calm - N/A   Light Drizzle
9:15 AM 60.8 °F 57.2 °F 88% 30.24 in 7.0 mi Calm Calm - N/A Rain Light Rain
9:35 AM 60.8 °F 57.2 °F 88% 30.24 in 7.0 mi Calm Calm - N/A Rain Light Rain
9:55 AM 60.8 °F 57.2 °F 88% 30.23 in 7.0 mi Calm Calm - N/A   Overcast
10:15 AM 62.6 °F 57.2 °F 82% 30.23 in 10.0 mi Calm Calm - N/A   Overcast
10:35 AM 62.6 °F 57.2 °F 82% 30.23 in 10.0 mi Calm Calm - N/A   Scattered Clouds
10:55 AM 64.4 °F 55.4 °F 73% 30.23 in 10.0 mi Calm Calm - N/A Rain Light Rain
11:15 AM 62.6 °F 55.4 °F 77% 30.22 in 10.0 mi Calm Calm - 0.01 in Rain Light Rain
11:35 AM 64.4 °F 53.6 °F 68% 30.23 in 10.0 mi South 3.5 mph - 0.01 in Rain Light Rain
11:55 AM 64.4 °F 53.6 °F 68% 30.22 in 10.0 mi Calm Calm - 0.01 in   Overcast
12:15 PM 62.6 °F 55.4 °F 77% 30.22 in 5.0 mi South 3.5 mph - N/A Rain Rain
12:35 PM 62.6 °F 59.0 °F 88% 30.22 in 3.0 mi SW 3.5 mph - 0.03 in Rain Light Rain
12:55 PM 62.6 °F 59.0 °F 88% 30.21 in 4.0 mi Calm Calm - 0.04 in Rain Rain
1:15 PM 62.6 °F 59.0 °F 88% 30.21 in 2.5 mi Calm Calm - 0.01 in Rain Rain
1:35 PM 62.6 °F 59.0 °F 88% 30.20 in 3.0 mi Calm Calm - 0.06 in Rain Light Rain
1:55 PM 62.6 °F 59.0 °F 88% 30.19 in 2.5 mi Calm Calm - 0.07 in Rain Rain
2:15 PM 60.8 °F 59.0 °F 94% 30.19 in 2.5 mi Calm Calm - 0.04 in Rain Heavy Rain
2:35 PM 60.8 °F 59.0 °F 94% 30.18 in 2.5 mi Calm Calm - 0.08 in Rain Rain
2:55 PM 60.8 °F 59.0 °F 94% 30.18 in 2.0 mi SSE 3.5 mph - 0.11 in Rain Rain
3:15 PM 60.8 °F 59.0 °F 94% 30.18 in 2.5 mi Calm Calm - 0.03 in Rain Light Rain
3:35 PM 60.8 °F 59.0 °F 94% 30.17 in 2.5 mi Calm Calm - 0.04 in   Drizzle
3:55 PM 60.8 °F 59.0 °F 94% 30.17 in 2.5 mi Calm Calm - 0.08 in Rain Rain
4:15 PM 60.8 °F 59.0 °F 94% 30.15 in 2.0 mi Calm Calm - 0.02 in Rain Rain
4:35 PM 60.8 °F 59.0 °F 94% 30.15 in 3.0 mi Calm Calm - 0.03 in   Light Drizzle
4:55 PM 60.8 °F 59.0 °F 94% 30.15 in 2.0 mi Calm Calm - 0.05 in Rain Rain
5:15 PM 60.8 °F 59.0 °F 94% 30.14 in 2.5 mi Calm Calm - 0.03 in Rain Rain
5:35 PM 60.8 °F 59.0 °F 94% 30.14 in 3.0 mi Calm Calm - 0.06 in Rain Light Rain
5:55 PM 60.8 °F 59.0 °F 94% 30.13 in 5.0 mi South 4.6 mph - 0.07 in Rain Rain
6:15 PM 60.8 °F 57.2 °F 88% 30.12 in 10.0 mi Calm Calm - N/A   Overcast
6:35 PM 60.8 °F 59.0 °F 94% 30.12 in 10.0 mi Calm Calm - N/A   Overcast
6:55 PM 60.8 °F 59.0 °F 94% 30.12 in 10.0 mi Calm Calm - N/A   Overcast
7:15 PM 60.8 °F 59.0 °F 94% 30.11 in 10.0 mi Calm Calm - N/A   Overcast
7:35 PM 60.8 °F 57.2 °F 88% 30.11 in 10.0 mi Calm Calm - N/A   Overcast
7:55 PM 60.8 °F 57.2 °F 88% 30.11 in 10.0 mi Calm Calm - N/A   Overcast
8:15 PM 60.8 °F 57.2 °F 88% 30.10 in 10.0 mi Calm Calm - N/A   Overcast
8:35 PM 60.8 °F 57.2 °F 88% 30.11 in 10.0 mi Calm Calm - N/A   Overcast
8:55 PM 60.8 °F 57.2 °F 88% 30.11 in 10.0 mi Calm Calm - N/A   Overcast
9:15 PM 60.8 °F 57.2 °F 88% 30.11 in 10.0 mi Calm Calm - N/A   Overcast
9:35 PM 60.8 °F 59.0 °F 94% 30.11 in 7.0 mi Calm Calm - N/A   Overcast
9:55 PM 60.8 °F 59.0 °F 94% 30.11 in 5.0 mi Calm Calm - N/A   Overcast
10:15 PM 60.8 °F 59.0 °F 94% 30.10 in 5.0 mi Calm Calm - N/A   Overcast
10:35 PM 60.8 °F 59.0 °F 94% 30.10 in 3.0 mi Calm Calm - N/A   Overcast
10:55 PM 60.8 °F 59.0 °F 94% 30.10 in 4.0 mi North 3.5 mph - N/A   Overcast
11:15 PM 60.8 °F 59.0 °F 94% 30.09 in 3.0 mi North 3.5 mph - N/A   Overcast
11:35 PM 60.8 °F 59.0 °F 94% 30.08 in 3.0 mi Calm Calm - N/A   Overcast
11:55 PM 60.8 °F 59.0 °F 94% 30.08 in 1.8 mi NNE 4.6 mph - N/A   Light Drizzle